TimeCDT,TemperatureF,Dew PointF,Humidity,Sea Level PressureIn,VisibilityMPH,Wind Direction,Wind SpeedMPH,Gust SpeedMPH,PrecipitationIn,Events,Conditions,WindDirDegrees,DateUTC
12:15 AM,59.7,59.7,100,29.98,10.0,South,3.5,-,N/A,,Overcast,180,2012-10-24 05:15:00
12:35 AM,59.9,59.5,99,29.98,10.0,Calm,Calm,-,N/A,,Overcast,0,2012-10-24 05:35:00
1:35 AM,59.9,58.6,96,29.97,10.0,Calm,Calm,-,N/A,,Overcast,0,2012-10-24 06:35:00
1:55 AM,59.9,58.5,95,29.97,10.0,Calm,Calm,-,N/A,,Overcast,0,2012-10-24 06:55:00
2:15 AM,60.4,58.5,93,29.97,10.0,Calm,Calm,-,N/A,,Overcast,0,2012-10-24 07:15:00
2:35 AM,60.4,58.1,92,29.97,10.0,South,4.6,-,N/A,,Overcast,180,2012-10-24 07:35:00
2:55 AM,60.8,57.7,90,29.96,10.0,South,4.6,-,N/A,,Overcast,190,2012-10-24 07:55:00
3:15 AM,61.0,57.2,87,29.96,10.0,South,6.9,-,N/A,,Mostly Cloudy,180,2012-10-24 08:15:00
3:35 AM,61.2,57.2,87,29.96,10.0,South,5.8,-,N/A,,Mostly Cloudy,190,2012-10-24 08:35:00
3:55 AM,61.3,57.2,86,29.96,10.0,SSW,5.8,-,N/A,,Overcast,210,2012-10-24 08:55:00
4:15 AM,61.3,57.2,86,29.97,10.0,SSW,4.6,-,N/A,,Overcast,200,2012-10-24 09:15:00
4:35 AM,61.2,57.2,87,29.97,10.0,SSW,5.8,-,N/A,,Overcast,200,2012-10-24 09:35:00
4:55 AM,61.0,57.2,87,29.97,10.0,SW,4.6,-,N/A,,Overcast,220,2012-10-24 09:55:00
5:15 AM,61.0,56.8,86,29.97,10.0,South,4.6,-,N/A,,Mostly Cloudy,190,2012-10-24 10:15:00
5:35 AM,61.0,56.8,86,29.98,10.0,SSW,5.8,-,N/A,,Mostly Cloudy,200,2012-10-24 10:35:00
5:55 AM,60.8,56.3,85,29.97,10.0,South,8.1,-,N/A,,Scattered Clouds,190,2012-10-24 10:55:00
6:15 AM,60.1,56.1,87,29.98,10.0,SSW,4.6,-,N/A,,Scattered Clouds,200,2012-10-24 11:15:00
6:35 AM,59.4,55.9,88,29.99,10.0,SSW,3.5,-,N/A,,Scattered Clouds,210,2012-10-24 11:35:00
6:55 AM,58.8,55.8,90,29.99,10.0,Calm,Calm,-,N/A,,Scattered Clouds,0,2012-10-24 11:55:00
7:15 AM,58.1,55.4,91,29.99,10.0,SSW,3.5,-,N/A,,Clear,200,2012-10-24 12:15:00
7:35 AM,58.5,55.6,90,29.99,10.0,South,4.6,-,N/A,,Clear,190,2012-10-24 12:35:00
7:55 AM,59.0,55.9,90,30.00,10.0,South,3.5,-,N/A,,Clear,190,2012-10-24 12:55:00
8:15 AM,60.1,56.3,87,30.00,10.0,South,4.6,-,N/A,,Clear,190,2012-10-24 13:15:00
8:35 AM,61.0,56.3,85,30.00,10.0,SSW,5.8,-,N/A,,Clear,200,2012-10-24 13:35:00
8:55 AM,62.4,57.2,83,30.01,10.0,SSW,9.2,-,N/A,,Scattered Clouds,210,2012-10-24 13:55:00
9:15 AM,63.7,57.6,80,30.00,10.0,SSW,6.9,-,N/A,,Clear,200,2012-10-24 14:15:00
9:35 AM,65.3,57.4,76,30.00,10.0,WSW,12.7,16.1,N/A,,Clear,240,2012-10-24 14:35:00
9:55 AM,66.7,57.7,73,30.00,10.0,WSW,11.5,-,N/A,,Clear,240,2012-10-24 14:55:00
10:15 AM,66.6,57.4,72,29.99,10.0,SW,8.1,-,N/A,,Clear,230,2012-10-24 15:15:00
10:35 AM,68.0,57.9,70,29.99,10.0,NNW,10.4,-,N/A,,Clear,330,2012-10-24 15:35:00
10:55 AM,69.1,58.1,68,29.99,10.0,SW,10.4,-,N/A,,Clear,220,2012-10-24 15:55:00
11:15 AM,70.7,58.3,65,29.99,10.0,SW,11.5,16.1,N/A,,Unknown,220,2012-10-24 16:15:00
11:35 AM,71.4,58.6,64,29.99,10.0,SW,12.7,-,N/A,,Clear,230,2012-10-24 16:35:00
11:55 AM,72.5,58.8,62,29.98,10.0,SSW,10.4,17.3,N/A,,Clear,200,2012-10-24 16:55:00
12:15 PM,72.5,59.2,63,29.98,10.0,SSW,10.4,-,N/A,,Clear,210,2012-10-24 17:15:00
12:35 PM,72.9,59.2,62,29.97,10.0,SW,9.2,-,N/A,,Clear,220,2012-10-24 17:35:00
12:55 PM,73.4,59.4,61,29.97,10.0,South,6.9,-,N/A,,Clear,190,2012-10-24 17:55:00
1:15 PM,73.9,59.2,60,29.96,10.0,South,9.2,-,N/A,,Clear,190,2012-10-24 18:15:00
1:35 PM,74.8,59.9,60,29.95,10.0,South,11.5,-,N/A,,Clear,190,2012-10-24 18:35:00
1:55 PM,75.0,59.7,59,29.94,10.0,South,9.2,-,N/A,,Clear,170,2012-10-24 18:55:00
2:15 PM,76.6,59.9,56,29.94,10.0,South,11.5,-,N/A,,Clear,180,2012-10-24 19:15:00
2:35 PM,77.2,60.1,55,29.94,10.0,South,11.5,-,N/A,,Clear,170,2012-10-24 19:35:00
2:55 PM,77.0,60.6,57,29.93,10.0,SSW,11.5,17.3,N/A,,Clear,200,2012-10-24 19:55:00
3:15 PM,77.0,60.6,57,29.93,10.0,SSW,11.5,-,N/A,,Clear,200,2012-10-24 20:15:00
3:35 PM,77.0,60.6,57,29.92,10.0,SSW,13.8,21.9,N/A,,Clear,200,2012-10-24 20:35:00
3:55 PM,76.6,60.8,58,29.92,10.0,South,12.7,20.7,N/A,,Clear,190,2012-10-24 20:55:00
4:15 PM,76.1,60.8,59,29.92,10.0,SSW,12.7,-,N/A,,Clear,200,2012-10-24 21:15:00
4:35 PM,76.1,61.3,60,29.92,10.0,South,10.4,-,N/A,,Scattered Clouds,180,2012-10-24 21:35:00
4:55 PM,75.2,61.0,61,29.92,10.0,South,9.2,18.4,N/A,,Clear,190,2012-10-24 21:55:00
5:15 PM,74.3,61.2,63,29.93,10.0,South,9.2,16.1,N/A,,Clear,190,2012-10-24 22:15:00
5:35 PM,72.9,61.0,66,29.93,10.0,South,8.1,-,N/A,,Clear,190,2012-10-24 22:35:00
5:55 PM,71.8,61.0,69,29.93,10.0,South,8.1,-,N/A,,Clear,180,2012-10-24 22:55:00
6:15 PM,70.9,60.8,70,29.94,10.0,South,5.8,-,N/A,,Clear,190,2012-10-24 23:15:00
6:35 PM,69.8,60.8,73,29.94,10.0,South,6.9,-,N/A,,Clear,180,2012-10-24 23:35:00
6:55 PM,69.8,60.3,72,29.94,10.0,South,6.9,-,N/A,,Clear,190,2012-10-24 23:55:00
7:15 PM,68.9,60.1,73,29.94,10.0,South,5.8,-,N/A,,Clear,170,2012-10-25 00:15:00
7:35 PM,68.5,59.9,74,29.94,10.0,South,5.8,-,N/A,,Clear,170,2012-10-25 00:35:00
7:55 PM,67.3,59.9,77,29.94,10.0,South,6.9,-,N/A,,Clear,170,2012-10-25 00:55:00
8:15 PM,67.1,59.7,77,29.95,10.0,South,5.8,-,N/A,,Clear,190,2012-10-25 01:15:00
8:35 PM,66.9,59.9,78,29.95,10.0,South,6.9,-,N/A,,Clear,180,2012-10-25 01:35:00
8:55 PM,66.2,60.1,81,29.95,10.0,South,5.8,-,N/A,,Clear,180,2012-10-25 01:55:00
9:15 PM,65.8,59.9,81,29.94,10.0,South,5.8,-,N/A,,Clear,170,2012-10-25 02:15:00
9:35 PM,65.8,60.1,82,29.95,10.0,South,8.1,-,N/A,,Clear,180,2012-10-25 02:35:00
9:55 PM,65.5,59.9,82,29.94,10.0,South,8.1,-,N/A,,Clear,180,2012-10-25 02:55:00
10:15 PM,65.5,59.4,81,29.94,10.0,South,9.2,-,N/A,,Clear,190,2012-10-25 03:15:00
10:35 PM,65.5,59.0,80,29.94,10.0,South,8.1,-,N/A,,Clear,190,2012-10-25 03:35:00
10:55 PM,65.1,58.6,79,29.94,10.0,South,6.9,-,N/A,,Clear,180,2012-10-25 03:55:00
11:15 PM,64.4,58.5,81,29.94,10.0,South,6.9,-,N/A,,Clear,180,2012-10-25 04:15:00
11:35 PM,64.4,58.3,80,29.93,10.0,South,8.1,-,N/A,,Clear,180,2012-10-25 04:35:00
11:55 PM,64.2,58.1,80,29.93,10.0,South,8.1,-,N/A,,Clear,190,2012-10-25 04:55:00